TimeCET,TemperatureF,Dew PointF,Humidity,Sea Level PressureIn,VisibilityMPH,Wind Direction,Wind SpeedMPH,Gust SpeedMPH,PrecipitationIn,Events,Conditions,WindDirDegrees,DateUTC
6:00 AM,50.0,48.2,94,29.77,6.2,SE,8.1,-,N/A,,Scattered Clouds,140,2012-11-17 05:00:00
6:30 AM,50.0,48.2,94,29.77,6.2,SE,9.2,-,N/A,,Scattered Clouds,140,2012-11-17 05:30:00
7:00 AM,50.0,48.2,94,29.77,6.2,SE,10.4,-,N/A,,Mostly Cloudy,130,2012-11-17 06:00:00
7:30 AM,50.0,48.2,94,29.77,6.2,SE,9.2,-,N/A,,Mostly Cloudy,140,2012-11-17 06:30:00
8:00 AM,50.0,48.2,94,29.77,6.2,SE,6.9,-,N/A,,Mostly Cloudy,130,2012-11-17 07:00:00
8:30 AM,50.0,46.4,87,29.77,6.2,SE,8.1,-,N/A,,Scattered Clouds,140,2012-11-17 07:30:00
9:00 AM,50.0,46.4,87,29.77,6.2,ESE,8.1,-,N/A,,Scattered Clouds,120,2012-11-17 08:00:00
9:30 AM,48.2,48.2,100,29.77,6.2,ESE,4.6,-,N/A,Rain,Light Rain,110,2012-11-17 08:30:00
10:00 AM,50.0,48.2,94,29.77,6.2,SE,9.2,-,N/A,Rain,Light Rain,130,2012-11-17 09:00:00
10:30 AM,51.8,48.2,88,29.77,6.2,SE,6.9,-,N/A,,Scattered Clouds,130,2012-11-17 09:30:00
11:00 AM,51.8,48.2,88,29.77,6.2,SE,8.1,-,N/A,,Scattered Clouds,140,2012-11-17 10:00:00
11:30 AM,51.8,48.2,88,29.77,6.2,SSE,8.1,-,N/A,,Scattered Clouds,150,2012-11-17 10:30:00
12:00 PM,53.6,50.0,88,29.77,6.2,SSE,9.2,-,N/A,,Scattered Clouds,150,2012-11-17 11:00:00
12:30 PM,53.6,48.2,82,29.77,6.2,SSE,9.2,-,N/A,,Scattered Clouds,160,2012-11-17 11:30:00
1:00 PM,51.8,50.0,94,29.77,6.2,SSW,9.2,-,N/A,Rain,Rain,200,2012-11-17 12:00:00
1:30 PM,51.8,50.0,94,29.74,6.2,SW,8.1,-,N/A,,Mostly Cloudy,230,2012-11-17 12:30:00
2:00 PM,51.8,50.0,94,29.74,6.2,SW,8.1,-,N/A,Rain,Rain,230,2012-11-17 13:00:00
2:30 PM,51.8,50.0,94,29.74,6.2,South,3.5,-,N/A,,Mostly Cloudy,190,2012-11-17 13:30:00
3:00 PM,51.8,50.0,94,29.74,6.2,SSW,4.6,-,N/A,,Mostly Cloudy,210,2012-11-17 14:00:00
3:30 PM,53.6,50.0,88,29.74,6.2,SSW,3.5,-,N/A,,Mostly Cloudy,210,2012-11-17 14:30:00
4:00 PM,53.6,50.0,88,29.71,6.2,Variable,1.2,-,N/A,,Mostly Cloudy,0,2012-11-17 15:00:00
4:30 PM,53.6,50.0,88,29.71,6.2,Variable,1.2,-,N/A,,Scattered Clouds,0,2012-11-17 15:30:00
5:00 PM,53.6,50.0,88,29.74,6.2,North,3.5,-,N/A,,Partly Cloudy,360,2012-11-17 16:00:00
5:30 PM,51.8,50.0,94,29.74,6.2,NE,3.5,-,N/A,,Partly Cloudy,40,2012-11-17 16:30:00
6:00 PM,51.8,50.0,94,29.74,6.2,Calm,Calm,-,N/A,,Scattered Clouds,0,2012-11-17 17:00:00
6:30 PM,50.0,48.2,94,29.74,6.2,NE,2.3,-,N/A,,Partly Cloudy,50,2012-11-17 17:30:00
7:00 PM,50.0,48.2,94,29.74,6.2,East,3.5,-,N/A,,Partly Cloudy,80,2012-11-17 18:00:00
7:30 PM,46.4,46.4,100,29.77,6.2,ENE,3.5,-,N/A,,Partly Cloudy,60,2012-11-17 18:30:00
8:00 PM,46.4,46.4,100,29.77,6.2,NE,3.5,-,N/A,,Partly Cloudy,50,2012-11-17 19:00:00
8:30 PM,46.4,46.4,100,29.77,6.2,NNE,4.6,-,N/A,,Partly Cloudy,20,2012-11-17 19:30:00
9:00 PM,46.4,46.4,100,29.77,6.2,NNE,2.3,-,N/A,,Partly Cloudy,20,2012-11-17 20:00:00
9:30 PM,46.4,46.4,100,29.77,-9999.0,North,2.3,-,N/A,,Clear,350,2012-11-17 20:30:00
10:00 PM,46.4,46.4,100,29.77,-9999.0,Calm,Calm,-,N/A,,Clear,0,2012-11-17 21:00:00
10:30 PM,46.4,46.4,100,29.80,-9999.0,Calm,Calm,-,N/A,,Clear,0,2012-11-17 21:30:00